| time (UTC) | temp F | wind direction | speed MPH | gust MPH | rain 1hr in | rain 24hr in | rain mn in | humidity % | barometer mb |
| 20260506210859 | 75 | 265 | 4.0 | 12.0 | 0.00 | 0.00 | 0.00 | 67 | 1009.9 |
| 20260506210353 | 75 | 193 | 4.0 | 11.0 | 0.00 | 0.00 | 0.00 | 68 | 1009.9 |
| 20260506205848 | 76 | 132 | 4.0 | 11.0 | 0.00 | 0.00 | 0.00 | 67 | 1010.2 |
| 20260506205340 | 76 | 149 | 4.0 | 11.0 | 0.00 | 0.00 | 0.00 | 67 | 1010.0 |
| 20260506204835 | 76 | 192 | 4.0 | 11.0 | 0.00 | 0.00 | 0.00 | 66 | 1010.1 |
| 20260506204328 | 76 | 182 | 4.0 | 10.0 | 0.00 | 0.00 | 0.00 | 66 | 1010.1 |
| 20260506203824 | 76 | 211 | 4.0 | 10.0 | 0.00 | 0.00 | 0.00 | 66 | 1010.3 |
| 20260506203317 | 76 | 199 | 4.0 | 12.0 | 0.00 | 0.00 | 0.00 | 66 | 1010.2 |
| 20260506203032 | 76 | 176 | 5.0 | 12.0 | 0.00 | 0.00 | 0.00 | 65 | 1010.1 |
| 20260506202306 | 76 | 186 | 6.0 | 17.0 | 0.00 | 0.00 | 0.00 | 66 | 1010.2 |
| 20260506202252 | 76 | 176 | 6.0 | 17.0 | 0.00 | 0.00 | 0.00 | 65 | 1010.2 |
| 20260506201515 | 77 | 162 | 5.0 | 15.0 | 0.00 | 0.00 | 0.00 | 65 | 1010.4 |
| 20260506200746 | 77 | 131 | 5.0 | 18.0 | 0.00 | 0.00 | 0.00 | 64 | 1010.4 |
| 20260506200245 | 77 | 188 | 6.0 | 18.0 | 0.00 | 0.00 | 0.00 | 63 | 1010.6 |
| 20260506200005 | 77 | 165 | 6.0 | 17.0 | 0.00 | 0.00 | 0.00 | 64 | 1010.6 |
| 20260506195242 | 78 | 114 | 5.0 | 16.0 | 0.00 | 0.00 | 0.00 | 63 | 1010.7 |
| 20260506194744 | 77 | 218 | 6.0 | 12.0 | 0.00 | 0.00 | 0.00 | 63 | 1010.9 |
| 20260506194243 | 77 | 199 | 5.0 | 13.0 | 0.00 | 0.00 | 0.00 | 64 | 1010.9 |
| 20260506194005 | 77 | 175 | 5.0 | 13.0 | 0.00 | 0.00 | 0.00 | 63 | 1011.2 |
| 20260506193243 | 77 | 196 | 5.0 | 19.0 | 0.00 | 0.00 | 0.00 | 63 | 1011.2 |
| 20260506192741 | 77 | 207 | 6.0 | 19.0 | 0.00 | 0.00 | 0.00 | 63 | 1011.3 |
| 20260506192241 | 77 | 166 | 5.0 | 17.0 | 0.00 | 0.00 | 0.00 | 64 | 1011.4 |
| 20260506191741 | 77 | 286 | 5.0 | 17.0 | 0.00 | 0.00 | 0.00 | 64 | 1011.7 |
| 20260506191242 | 77 | 170 | 5.0 | 17.0 | 0.00 | 0.00 | 0.00 | 64 | 1011.8 |
| 20260506190741 | 77 | 203 | 4.0 | 14.0 | 0.00 | 0.00 | 0.00 | 65 | 1011.8 |
| 20260506190241 | 77 | 205 | 5.0 | 14.0 | 0.00 | 0.00 | 0.00 | 66 | 1011.9 |
| 20260506185741 | 76 | 230 | 5.0 | 14.0 | 0.00 | 0.00 | 0.00 | 65 | 1011.9 |
| 20260506185240 | 76 | 202 | 4.0 | 13.0 | 0.00 | 0.00 | 0.00 | 66 | 1012.0 |
| 20260506184741 | 76 | 205 | 4.0 | 12.0 | 0.00 | 0.00 | 0.00 | 66 | 1012.0 |
| 20260506184239 | 77 | 180 | 4.0 | 12.0 | 0.00 | 0.00 | 0.00 | 66 | 1012.1 |
| 20260506183739 | 77 | 203 | 5.0 | 17.0 | 0.00 | 0.00 | 0.00 | 66 | 1012.2 |
| 20260506183232 | 77 | 64 | 6.0 | 17.0 | 0.00 | 0.00 | 0.00 | 66 | 1012.2 |
| 20260506183221 | 77 | 207 | 6.0 | 15.0 | 0.00 | 0.00 | 0.00 | 66 | 1012.2 |
| 20260506182220 | 77 | 332 | 6.0 | 14.0 | 0.00 | 0.00 | 0.00 | 66 | 1012.2 |
| 20260506181715 | 76 | 237 | 6.0 | 14.0 | 0.00 | 0.00 | 0.00 | 66 | 1012.2 |
| 20260506181209 | 76 | 192 | 7.0 | 17.0 | 0.00 | 0.00 | 0.00 | 66 | 1012.2 |
| 20260506180704 | 76 | 192 | 7.0 | 17.0 | 0.00 | 0.00 | 0.00 | 65 | 1012.3 |
| 20260506180157 | 76 | 282 | 6.0 | 14.0 | 0.00 | 0.00 | 0.00 | 68 | 1012.3 |
| 20260506175652 | 76 | 207 | 5.0 | 14.0 | 0.00 | 0.00 | 0.00 | 68 | 1012.2 |
| 20260506175144 | 76 | 167 | 5.0 | 12.0 | 0.00 | 0.00 | 0.00 | 68 | 1012.3 |
| 20260506174900 | 75 | 228 | 6.0 | 16.0 | 0.00 | 0.00 | 0.00 | 68 | 1012.3 |
| 20260506174133 | 76 | 269 | 7.0 | 17.0 | 0.00 | 0.00 | 0.00 | 68 | 1012.4 |
| 20260506173628 | 75 | 355 | 6.0 | 17.0 | 0.00 | 0.00 | 0.00 | 69 | 1012.3 |
| 20260506173121 | 75 | 191 | 6.0 | 17.0 | 0.00 | 0.00 | 0.00 | 68 | 1012.4 |
| 20260506172614 | 75 | 175 | 6.0 | 17.0 | 0.00 | 0.00 | 0.00 | 69 | 1012.7 |
| 20260506172333 | 75 | 287 | 5.0 | 17.0 | 0.00 | 0.00 | 0.00 | 69 | 1012.8 |
| 20260506171604 | 74 | 163 | 5.0 | 12.0 | 0.00 | 0.00 | 0.00 | 71 | 1012.9 |
| 20260506171057 | 74 | 159 | 6.0 | 15.0 | 0.00 | 0.00 | 0.00 | 71 | 1012.8 |
| 20260506170550 | 73 | 186 | 5.0 | 15.0 | 0.00 | 0.00 | 0.00 | 72 | 1013.0 |
| 20260506165549 | 73 | 245 | 5.0 | 12.0 | 0.00 | 0.00 | 0.00 | 72 | 1013.4 |
| 20260506165047 | 73 | 201 | 4.0 | 13.0 | 0.00 | 0.00 | 0.00 | 73 | 1013.5 |
| 20260506164547 | 73 | 191 | 4.0 | 13.0 | 0.00 | 0.00 | 0.00 | 72 | 1013.6 |
| 20260506164046 | 73 | 211 | 4.0 | 11.0 | 0.00 | 0.00 | 0.00 | 72 | 1013.6 |
| 20260506163808 | 72 | 332 | 4.0 | 16.0 | 0.00 | 0.00 | 0.00 | 73 | 1013.7 |
| 20260506163048 | 72 | 184 | 5.0 | 16.0 | 0.00 | 0.00 | 0.00 | 72 | 1013.6 |
| 20260506162546 | 72 | 279 | 5.0 | 16.0 | 0.00 | 0.00 | 0.00 | 74 | 1013.5 |
| 20260506162536 | 72 | 269 | 4.0 | 16.0 | 0.00 | 0.00 | 0.00 | 74 | 1013.5 |
| 20260506161547 | 71 | 274 | 4.0 | 14.0 | 0.00 | 0.00 | 0.00 | 74 | 1013.5 |
| 20260506161324 | 71 | 182 | 4.0 | 14.0 | 0.00 | 0.00 | 0.00 | 74 | 1013.5 |
| 20260506160544 | 71 | 218 | 4.0 | 12.0 | 0.00 | 0.00 | 0.00 | 74 | 1013.6 |
| 20260506160055 | 71 | 178 | 5.0 | 14.0 | 0.00 | 0.00 | 0.00 | 74 | 1013.7 |
| 20260506155542 | 71 | 47 | 4.0 | 14.0 | 0.00 | 0.00 | 0.00 | 75 | 1013.7 |
| 20260506155042 | 71 | 229 | 4.0 | 11.0 | 0.00 | 0.00 | 0.00 | 75 | 1013.9 |
| 20260506154542 | 70 | 153 | 5.0 | 15.0 | 0.00 | 0.00 | 0.00 | 76 | 1013.9 |
| 20260506154044 | 70 | 224 | 5.0 | 15.0 | 0.00 | 0.00 | 0.00 | 77 | 1013.9 |
| 20260506153545 | 69 | 253 | 5.0 | 15.0 | 0.00 | 0.00 | 0.00 | 77 | 1014.0 |
| 20260506153044 | 69 | 317 | 4.0 | 9.0 | 0.00 | 0.00 | 0.00 | 78 | 1014.1 |
| 20260506152544 | 69 | 227 | 4.0 | 10.0 | 0.00 | 0.00 | 0.00 | 78 | 1014.2 |
| 20260506152305 | 69 | 259 | 4.0 | 15.0 | 0.00 | 0.00 | 0.00 | 78 | 1014.2 |
| 20260506151800 | 69 | 228 | 5.0 | 15.0 | 0.00 | 0.00 | 0.00 | 78 | 1014.2 |
| 20260506151042 | 69 | 210 | 5.0 | 12.0 | 0.00 | 0.00 | 0.00 | 77 | 1014.3 |
| 20260506150543 | 69 | 242 | 5.0 | 11.0 | 0.00 | 0.00 | 0.00 | 77 | 1014.4 |
| 20260506150055 | 69 | 179 | 4.0 | 10.0 | 0.00 | 0.00 | 0.00 | 77 | 1014.6 |
| 20260506145542 | 69 | 190 | 5.0 | 18.0 | 0.00 | 0.00 | 0.00 | 77 | 1014.6 |
| 20260506145308 | 69 | 196 | 6.0 | 18.0 | 0.00 | 0.00 | 0.00 | 77 | 1014.4 |
| 20260506144540 | 69 | 232 | 6.0 | 15.0 | 0.00 | 0.00 | 0.00 | 78 | 1014.5 |
| 20260506144040 | 69 | 271 | 6.0 | 18.0 | 0.00 | 0.00 | 0.00 | 77 | 1014.4 |
| 20260506143541 | 69 | 178 | 5.0 | 18.0 | 0.00 | 0.00 | 0.00 | 76 | 1014.4 |
| 20260506143303 | 69 | 139 | 5.0 | 13.0 | 0.00 | 0.00 | 0.00 | 76 | 1014.3 |
| 20260506142528 | 69 | 257 | 5.0 | 12.0 | 0.00 | 0.00 | 0.00 | 77 | 1014.3 |
| 20260506142022 | 69 | 231 | 6.0 | 18.0 | 0.00 | 0.00 | 0.00 | 77 | 1014.2 |
| 20260506141529 | 69 | 186 | 6.0 | 18.0 | 0.00 | 0.00 | 0.00 | 78 | 1014.2 |
| 20260506141231 | 69 | 168 | 5.0 | 14.0 | 0.00 | 0.00 | 0.00 | 78 | 1014.0 |
| 20260506140503 | 69 | 237 | 5.0 | 23.0 | 0.00 | 0.00 | 0.00 | 77 | 1014.2 |
| 20260506135957 | 69 | 163 | 6.0 | 23.0 | 0.00 | 0.00 | 0.00 | 76 | 1014.1 |
| 20260506135453 | 69 | 247 | 5.0 | 18.0 | 0.00 | 0.00 | 0.00 | 74 | 1014.2 |
| 20260506134946 | 69 | 184 | 5.0 | 16.0 | 0.00 | 0.00 | 0.00 | 74 | 1014.0 |
| 20260506134439 | 69 | 215 | 6.0 | 17.0 | 0.00 | 0.00 | 0.00 | 74 | 1014.0 |
| 20260506134157 | 69 | 304 | 6.0 | 17.0 | 0.00 | 0.00 | 0.00 | 74 | 1014.2 |
| 20260506133428 | 69 | 250 | 6.0 | 16.0 | 0.00 | 0.00 | 0.00 | 74 | 1014.2 |
| 20260506132922 | 69 | 139 | 6.0 | 14.0 | 0.00 | 0.00 | 0.00 | 74 | 1013.9 |
| 20260506132416 | 69 | 221 | 5.0 | 15.0 | 0.00 | 0.00 | 0.00 | 74 | 1014.0 |
| 20260506131911 | 69 | 307 | 5.0 | 15.0 | 0.00 | 0.00 | 0.00 | 74 | 1014.0 |
| 20260506131417 | 69 | 265 | 4.0 | 13.0 | 0.00 | 0.00 | 0.00 | 75 | 1014.1 |
| 20260506130858 | 69 | 213 | 4.0 | 13.0 | 0.00 | 0.00 | 0.00 | 75 | 1014.0 |
| 20260506130352 | 69 | 190 | 5.0 | 13.0 | 0.00 | 0.00 | 0.00 | 76 | 1014.1 |
| 20260506125847 | 68 | 211 | 4.0 | 13.0 | 0.00 | 0.00 | 0.00 | 77 | 1014.2 |
| 20260506125340 | 67 | 227 | 4.0 | 11.0 | 0.00 | 0.00 | 0.00 | 78 | 1014.0 |
| 20260506124833 | 67 | 169 | 4.0 | 14.0 | 0.00 | 0.00 | 0.00 | 79 | 1013.9 |
| 20260506124329 | 66 | 182 | 4.0 | 14.0 | 0.00 | 0.00 | 0.00 | 79 | 1013.8 |
| 20260506123822 | 66 | 130 | 5.0 | 15.0 | 0.00 | 0.00 | 0.00 | 79 | 1013.8 |
| 20260506123317 | 66 | 185 | 5.0 | 15.0 | 0.00 | 0.00 | 0.00 | 79 | 1014.0 |
| 20260506122812 | 65 | 196 | 5.0 | 16.0 | 0.00 | 0.00 | 0.00 | 79 | 1014.0 |
| 20260506122316 | 65 | 198 | 4.0 | 16.0 | 0.00 | 0.00 | 0.00 | 79 | 1014.2 |
| 20260506121757 | 65 | 222 | 3.0 | 8.0 | 0.00 | 0.00 | 0.00 | 79 | 1014.3 |
| 20260506121253 | 65 | 177 | 3.0 | 6.0 | 0.00 | 0.00 | 0.00 | 79 | 1014.4 |
| 20260506120751 | 65 | 230 | 4.0 | 11.0 | 0.00 | 0.00 | 0.00 | 79 | 1014.3 |
| 20260506120510 | 65 | 232 | 4.0 | 13.0 | 0.00 | 0.00 | 0.00 | 79 | 1014.3 |
| 20260506115748 | 65 | 186 | 4.0 | 13.0 | 0.00 | 0.00 | 0.00 | 79 | 1014.4 |
| 20260506115249 | 64 | 217 | 4.0 | 11.0 | 0.00 | 0.00 | 0.00 | 80 | 1014.4 |
| 20260506114749 | 64 | 192 | 3.0 | 8.0 | 0.00 | 0.00 | 0.00 | 79 | 1014.4 |
| 20260506114731 | 64 | 231 | 4.0 | 12.0 | 0.00 | 0.00 | 0.00 | 79 | 1014.4 |
| 20260506113745 | 64 | 174 | 4.0 | 12.0 | 0.00 | 0.00 | 0.00 | 80 | 1014.5 |
| 20260506113240 | 64 | 179 | 5.0 | 14.0 | 0.00 | 0.00 | 0.00 | 80 | 1014.3 |
| 20260506112735 | 64 | 268 | 4.0 | 14.0 | 0.00 | 0.00 | 0.00 | 80 | 1014.3 |
| 20260506112446 | 63 | 220 | 4.0 | 12.0 | 0.00 | 0.00 | 0.00 | 80 | 1014.4 |
| 20260506111722 | 63 | 203 | 5.0 | 12.0 | 0.00 | 0.00 | 0.00 | 80 | 1014.4 |
| 20260506111216 | 63 | 53 | 4.0 | 11.0 | 0.00 | 0.00 | 0.00 | 80 | 1014.5 |
| 20260506111156 | 63 | 257 | 3.0 | 11.0 | 0.00 | 0.00 | 0.00 | 80 | 1014.6 |
| 20260506110426 | 63 | 219 | 3.0 | 11.0 | 0.00 | 0.00 | 0.00 | 80 | 1014.5 |
| 20260506105657 | 63 | 203 | 3.0 | 11.0 | 0.00 | 0.00 | 0.00 | 80 | 1014.5 |
| 20260506105152 | 62 | 264 | 2.0 | 7.0 | 0.00 | 0.00 | 0.00 | 81 | 1014.4 |
| 20260506104645 | 62 | 355 | 2.0 | 12.0 | 0.00 | 0.00 | 0.00 | 81 | 1014.4 |
| 20260506104140 | 62 | 269 | 3.0 | 12.0 | 0.00 | 0.00 | 0.00 | 81 | 1014.2 |
| 20260506103855 | 62 | 203 | 3.0 | 9.0 | 0.00 | 0.00 | 0.00 | 81 | 1014.2 |
| 20260506103345 | 62 | 355 | 2.0 | 8.0 | 0.00 | 0.00 | 0.00 | 81 | 1014.1 |
| 20260506103058 | 62 | 192 | 2.0 | 9.0 | 0.00 | 0.00 | 0.00 | 81 | 1014.3 |
| 20260506102116 | 62 | 152 | 2.0 | 9.0 | 0.00 | 0.00 | 0.00 | 81 | 1014.2 |
| 20260506101610 | 61 | 226 | 2.0 | 10.0 | 0.00 | 0.00 | 0.00 | 81 | 1014.1 |
| 20260506101103 | 61 | 140 | 3.0 | 10.0 | 0.00 | 0.00 | 0.00 | 81 | 1014.1 |
| 20260506100557 | 61 | 205 | 3.0 | 9.0 | 0.00 | 0.00 | 0.00 | 81 | 1014.0 |
| 20260506100051 | 61 | 142 | 3.0 | 8.0 | 0.00 | 0.00 | 0.00 | 81 | 1014.1 |
| 20260506095546 | 61 | 199 | 3.0 | 8.0 | 0.00 | 0.00 | 0.00 | 81 | 1014.1 |
| 20260506095254 | 61 | 182 | 2.0 | 5.0 | 0.00 | 0.00 | 0.00 | 81 | 1013.9 |
| 20260506094533 | 61 | 197 | 2.0 | 5.0 | 0.00 | 0.00 | 0.00 | 81 | 1013.9 |
| 20260506094029 | 61 | 3 | 2.0 | 6.0 | 0.00 | 0.00 | 0.00 | 81 | 1014.0 |
| 20260506093522 | 61 | 192 | 2.0 | 6.0 | 0.00 | 0.00 | 0.00 | 81 | 1014.0 |
| 20260506093243 | 61 | 201 | 2.0 | 6.0 | 0.00 | 0.00 | 0.00 | 81 | 1014.1 |
| 20260506092521 | 62 | 169 | 2.0 | 6.0 | 0.00 | 0.00 | 0.00 | 80 | 1014.2 |
| 20260506092022 | 62 | 180 | 2.0 | 6.0 | 0.00 | 0.00 | 0.00 | 80 | 1014.1 |
| 20260506091522 | 62 | 43 | 1.0 | 5.0 | 0.00 | 0.00 | 0.00 | 80 | 1014.0 |
| 20260506091253 | 62 | 190 | 2.0 | 6.0 | 0.00 | 0.00 | 0.00 | 80 | 1014.2 |
| 20260506090739 | 62 | 153 | 2.0 | 6.0 | 0.00 | 0.00 | 0.00 | 80 | 1014.4 |
| 20260506090018 | 62 | 159 | 2.0 | 9.0 | 0.00 | 0.00 | 0.00 | 80 | 1014.4 |
| 20260506085516 | 62 | 153 | 3.0 | 9.0 | 0.00 | 0.00 | 0.00 | 79 | 1014.5 |
| 20260506085015 | 62 | 187 | 3.0 | 7.0 | 0.00 | 0.00 | 0.00 | 79 | 1014.6 |
| 20260506084516 | 62 | 205 | 2.0 | 8.0 | 0.00 | 0.00 | 0.00 | 79 | 1014.5 |
| 20260506084017 | 62 | 188 | 3.0 | 9.0 | 0.00 | 0.00 | 0.00 | 79 | 1014.6 |
| 20260506083516 | 63 | 144 | 2.0 | 9.0 | 0.00 | 0.00 | 0.00 | 79 | 1014.5 |
| 20260506083015 | 63 | 190 | 2.0 | 8.0 | 0.00 | 0.00 | 0.00 | 78 | 1014.5 |
| 20260506082516 | 63 | 222 | 3.0 | 8.0 | 0.00 | 0.00 | 0.00 | 78 | 1014.5 |
| 20260506082028 | 63 | 252 | 3.0 | 7.0 | 0.00 | 0.00 | 0.00 | 78 | 1014.4 |
| 20260506081738 | 63 | 236 | 3.0 | 10.0 | 0.00 | 0.00 | 0.00 | 78 | 1014.5 |
| 20260506081016 | 63 | 219 | 3.0 | 10.0 | 0.00 | 0.00 | 0.00 | 78 | 1014.4 |
| 20260506080509 | 63 | 174 | 3.0 | 6.0 | 0.00 | 0.00 | 0.00 | 78 | 1014.4 |
| 20260506073451 | 64 | 244 | 3.0 | 12.0 | 0.00 | 0.00 | 0.00 | 77 | 1014.4 |
| 20260506072951 | 64 | 355 | 3.0 | 10.0 | 0.00 | 0.00 | 0.00 | 77 | 1014.4 |
| 20260506072453 | 64 | 159 | 3.0 | 11.0 | 0.00 | 0.00 | 0.00 | 77 | 1014.5 |
| 20260506071952 | 64 | 215 | 3.0 | 11.0 | 0.00 | 0.00 | 0.00 | 77 | 1014.5 |
| 20260506071936 | 64 | 305 | 3.0 | 12.0 | 0.00 | 0.00 | 0.00 | 77 | 1014.6 |
| 20260506070952 | 64 | 188 | 3.0 | 12.0 | 0.00 | 0.00 | 0.00 | 76 | 1014.6 |
| 20260506070708 | 64 | 151 | 3.0 | 9.0 | 0.00 | 0.00 | 0.00 | 76 | 1014.6 |
| 20260506062452 | 64 | 136 | 3.0 | 10.0 | 0.00 | 0.00 | 0.00 | 75 | 1014.6 |
| 20260506061953 | 64 | 95 | 4.0 | 15.0 | 0.00 | 0.00 | 0.00 | 75 | 1014.7 |
| 20260506061452 | 64 | 267 | 4.0 | 15.0 | 0.00 | 0.00 | 0.00 | 75 | 1014.6 |
| 20260506060952 | 64 | 188 | 4.0 | 10.0 | 0.00 | 0.00 | 0.00 | 75 | 1014.7 |
| 20260506060504 | 64 | 286 | 4.0 | 10.0 | 0.00 | 0.00 | 0.00 | 74 | 1014.8 |
| 20260506060213 | 64 | 165 | 4.0 | 10.0 | 0.00 | 0.00 | 0.00 | 75 | 1014.8 |
| 20260506051157 | 65 | 174 | 4.0 | 15.0 | 0.00 | 0.00 | 0.00 | 73 | 1015.4 |
| 20260506050428 | 65 | 180 | 3.0 | 14.0 | 0.00 | 0.00 | 0.00 | 73 | 1015.4 |
| 20260506044911 | 66 | 195 | 3.0 | 11.0 | 0.00 | 0.00 | 0.00 | 73 | 1015.4 |
| 20260506044404 | 66 | 249 | 3.0 | 11.0 | 0.00 | 0.00 | 0.00 | 73 | 1015.3 |
| 20260506043859 | 66 | 230 | 4.0 | 13.0 | 0.00 | 0.00 | 0.00 | 73 | 1015.4 |
| 20260506043352 | 66 | 328 | 4.0 | 13.0 | 0.00 | 0.00 | 0.00 | 73 | 1015.5 |
| 20260506042846 | 66 | 296 | 4.0 | 10.0 | 0.00 | 0.00 | 0.00 | 73 | 1015.4 |
| 20260506042340 | 66 | 222 | 3.0 | 10.0 | 0.00 | 0.00 | 0.00 | 73 | 1015.4 |
| 20260506042058 | 66 | 212 | 4.0 | 14.0 | 0.00 | 0.00 | 0.00 | 73 | 1015.4 |
| 20260506041329 | 66 | 174 | 5.0 | 14.0 | 0.00 | 0.00 | 0.00 | 74 | 1015.4 |
| 20260506040824 | 66 | 168 | 4.0 | 13.0 | 0.00 | 0.00 | 0.00 | 73 | 1015.4 |
| 20260506040317 | 67 | 228 | 4.0 | 10.0 | 0.00 | 0.00 | 0.00 | 73 | 1015.5 |
| 20260506035812 | 67 | 92 | 4.0 | 14.0 | 0.00 | 0.00 | 0.00 | 73 | 1015.5 |
| 20260506035306 | 67 | 205 | 4.0 | 14.0 | 0.00 | 0.00 | 0.00 | 73 | 1015.6 |
| 20260506034806 | 67 | 259 | 4.0 | 13.0 | 0.00 | 0.00 | 0.00 | 73 | 1015.6 |
| 20260506034529 | 67 | 277 | 4.0 | 10.0 | 0.00 | 0.00 | 0.00 | 73 | 1015.5 |
| 20260506033806 | 67 | 211 | 4.0 | 10.0 | 0.00 | 0.00 | 0.00 | 72 | 1015.4 |
| 20260506033306 | 67 | 209 | 3.0 | 10.0 | 0.00 | 0.00 | 0.00 | 72 | 1015.4 |
| 20260506032806 | 67 | 207 | 5.0 | 15.0 | 0.00 | 0.00 | 0.00 | 72 | 1015.3 |
| 20260506032307 | 68 | 178 | 5.0 | 15.0 | 0.00 | 0.00 | 0.00 | 72 | 1015.4 |
| 20260506031806 | 68 | 199 | 4.0 | 15.0 | 0.00 | 0.00 | 0.00 | 71 | 1015.4 |
| 20260506031307 | 68 | 199 | 4.0 | 16.0 | 0.00 | 0.00 | 0.00 | 71 | 1015.3 |
| 20260506030818 | 68 | 253 | 5.0 | 16.0 | 0.00 | 0.00 | 0.00 | 71 | 1015.4 |
| 20260506030530 | 68 | 258 | 5.0 | 24.0 | 0.00 | 0.00 | 0.00 | 71 | 1015.5 |
| 20260506025806 | 68 | 107 | 5.0 | 24.0 | 0.00 | 0.00 | 0.00 | 71 | 1015.4 |
| 20260506025306 | 69 | 207 | 5.0 | 14.0 | 0.00 | 0.00 | 0.00 | 71 | 1015.3 |
| 20260506024805 | 69 | 174 | 5.0 | 14.0 | 0.00 | 0.00 | 0.00 | 71 | 1015.3 |
| 20260506024304 | 69 | 256 | 4.0 | 12.0 | 0.00 | 0.00 | 0.00 | 70 | 1015.2 |
| 20260506024029 | 69 | 182 | 4.0 | 12.0 | 0.00 | 0.00 | 0.00 | 70 | 1015.3 |
| 20260506023306 | 69 | 95 | 4.0 | 14.0 | 0.00 | 0.00 | 0.00 | 70 | 1015.2 |
| 20260506022806 | 69 | 178 | 4.0 | 14.0 | 0.00 | 0.00 | 0.00 | 70 | 1015.2 |
| 20260506022306 | 70 | 150 | 5.0 | 16.0 | 0.00 | 0.00 | 0.00 | 70 | 1015.3 |
| 20260506021804 | 70 | 179 | 5.0 | 16.0 | 0.00 | 0.00 | 0.00 | 69 | 1015.1 |
| 20260506021304 | 70 | 61 | 4.0 | 16.0 | 0.00 | 0.00 | 0.00 | 69 | 1015.1 |
| 20260506020804 | 70 | 156 | 4.0 | 16.0 | 0.00 | 0.00 | 0.00 | 69 | 1015.0 |
| 20260506020304 | 70 | 251 | 5.0 | 15.0 | 0.00 | 0.00 | 0.00 | 69 | 1014.9 |
| 20260506015803 | 71 | 164 | 4.0 | 15.0 | 0.00 | 0.00 | 0.00 | 69 | 1015.0 |
| 20260506015305 | 71 | 191 | 4.0 | 18.0 | 0.00 | 0.00 | 0.00 | 68 | 1014.9 |
| 20260506015028 | 71 | 8 | 4.0 | 18.0 | 0.00 | 0.00 | 0.00 | 68 | 1014.8 |
| 20260506014533 | 71 | 29 | 4.0 | 12.0 | 0.00 | 0.00 | 0.00 | 67 | 1014.8 |
| 20260506013804 | 71 | 151 | 4.0 | 11.0 | 0.00 | 0.00 | 0.00 | 67 | 1014.8 |
| 20260506013303 | 72 | 265 | 4.0 | 10.0 | 0.00 | 0.00 | 0.00 | 66 | 1014.8 |
| 20260506012804 | 72 | 257 | 3.0 | 18.0 | 0.00 | 0.00 | 0.00 | 66 | 1014.8 |
| 20260506012523 | 72 | 229 | 3.0 | 18.0 | 0.00 | 0.00 | 0.00 | 65 | 1014.7 |
| 20260506011801 | 72 | 230 | 4.0 | 16.0 | 0.00 | 0.00 | 0.00 | 65 | 1014.7 |
| 20260506011305 | 72 | 212 | 6.0 | 16.0 | 0.00 | 0.00 | 0.00 | 64 | 1014.7 |
| 20260506010803 | 73 | 151 | 5.0 | 11.0 | 0.00 | 0.00 | 0.00 | 64 | 1014.6 |
| 20260506010257 | 73 | 208 | 4.0 | 11.0 | 0.00 | 0.00 | 0.00 | 64 | 1014.5 |
| 20260506005750 | 73 | 252 | 3.0 | 11.0 | 0.00 | 0.00 | 0.00 | 63 | 1014.5 |
| 20260506005245 | 73 | 77 | 2.0 | 11.0 | 0.00 | 0.00 | 0.00 | 63 | 1014.4 |
| 20260506004739 | 73 | 85 | 2.0 | 9.0 | 0.00 | 0.00 | 0.00 | 62 | 1014.3 |
| 20260506004232 | 73 | 315 | 3.0 | 9.0 | 0.00 | 0.00 | 0.00 | 62 | 1014.2 |
| 20260506003726 | 74 | 234 | 3.0 | 10.0 | 0.00 | 0.00 | 0.00 | 61 | 1014.1 |
| 20260506003220 | 74 | 106 | 3.0 | 11.0 | 0.00 | 0.00 | 0.00 | 60 | 1014.0 |
| 20260506002714 | 74 | 249 | 2.0 | 11.0 | 0.00 | 0.00 | 0.00 | 60 | 1014.0 |
| 20260506002208 | 74 | 191 | 2.0 | 8.0 | 0.00 | 0.00 | 0.00 | 59 | 1014.0 |
| 20260506001703 | 74 | 242 | 2.0 | 9.0 | 0.00 | 0.00 | 0.00 | 58 | 1014.0 |
| 20260506001157 | 75 | 211 | 2.0 | 9.0 | 0.00 | 0.00 | 0.00 | 58 | 1013.8 |
| 20260506000650 | 75 | 207 | 2.0 | 9.0 | 0.00 | 0.00 | 0.00 | 57 | 1013.9 |
| 20260506000145 | 75 | 166 | 2.0 | 9.0 | 0.00 | 0.00 | 0.00 | 57 | 1013.7 |
| 20260505235639 | 76 | 198 | 2.0 | 8.0 | 0.00 | 0.00 | 0.00 | 56 | 1013.7 |
| 20260505235132 | 76 | 133 | 3.0 | 12.0 | 0.00 | 0.00 | 0.00 | 55 | 1013.6 |
| 20260505234626 | 76 | 178 | 3.0 | 12.0 | 0.00 | 0.00 | 0.00 | 55 | 1013.7 |
| 20260505234353 | 76 | 197 | 3.0 | 8.0 | 0.00 | 0.00 | 0.00 | 54 | 1013.6 |
| 20260505233614 | 77 | 325 | 3.0 | 9.0 | 0.00 | 0.00 | 0.00 | 53 | 1013.6 |
| 20260505233108 | 77 | 32 | 4.0 | 10.0 | 0.00 | 0.00 | 0.00 | 53 | 1013.6 |
| 20260505232602 | 78 | 196 | 3.0 | 9.0 | 0.00 | 0.00 | 0.00 | 53 | 1013.7 |
| 20260505232056 | 78 | 159 | 3.0 | 10.0 | 0.00 | 0.00 | 0.00 | 52 | 1013.5 |
| 20260505231551 | 78 | 333 | 4.0 | 18.0 | 0.00 | 0.00 | 0.00 | 51 | 1013.5 |
| 20260505231045 | 79 | 2 | 6.0 | 18.0 | 0.00 | 0.00 | 0.00 | 50 | 1013.4 |
| 20260505230551 | 79 | 174 | 5.0 | 16.0 | 0.00 | 0.00 | 0.00 | 50 | 1013.4 |
| 20260505230032 | 79 | 228 | 5.0 | 16.0 | 0.00 | 0.00 | 0.00 | 50 | 1013.5 |
| 20260505225527 | 79 | 208 | 4.0 | 11.0 | 0.00 | 0.00 | 0.00 | 50 | 1013.5 |
| 20260505225020 | 79 | 15 | 4.0 | 10.0 | 0.00 | 0.00 | 0.00 | 49 | 1013.4 |
| 20260505224514 | 79 | 165 | 4.0 | 11.0 | 0.00 | 0.00 | 0.00 | 50 | 1013.5 |
| 20260505224008 | 79 | 181 | 4.0 | 12.0 | 0.00 | 0.00 | 0.00 | 50 | 1013.5 |
| 20260505223725 | 79 | 210 | 4.0 | 14.0 | 0.00 | 0.00 | 0.00 | 49 | 1013.4 |
| 20260505222956 | 78 | 170 | 4.0 | 14.0 | 0.00 | 0.00 | 0.00 | 49 | 1013.5 |
| 20260505222707 | 79 | 188 | 5.0 | 13.0 | 0.00 | 0.00 | 0.00 | 50 | 1013.5 |
| 20260505221944 | 79 | 151 | 5.0 | 14.0 | 0.00 | 0.00 | 0.00 | 49 | 1013.5 |
| 20260505221657 | 79 | 159 | 4.0 | 18.0 | 0.00 | 0.00 | 0.00 | 49 | 1013.7 |
| 20260505220933 | 79 | 167 | 4.0 | 18.0 | 0.00 | 0.00 | 0.00 | 48 | 1013.7 |
| 20260505220427 | 79 | 163 | 6.0 | 16.0 | 0.00 | 0.00 | 0.00 | 48 | 1013.6 |
| 20260505215920 | 79 | 228 | 7.0 | 19.0 | 0.00 | 0.00 | 0.00 | 47 | 1013.7 |
| 20260505215427 | 80 | 230 | 5.0 | 19.0 | 0.00 | 0.00 | 0.00 | 47 | 1013.6 |
| 20260505214909 | 80 | 184 | 5.0 | 11.0 | 0.00 | 0.00 | 0.00 | 46 | 1013.7 |
| 20260505214402 | 81 | 206 | 5.0 | 13.0 | 0.00 | 0.00 | 0.00 | 46 | 1013.6 |
| 20260505214114 | 81 | 253 | 6.0 | 14.0 | 0.00 | 0.00 | 0.00 | 45 | 1013.5 |
| 20260505213351 | 81 | 187 | 5.0 | 14.0 | 0.00 | 0.00 | 0.00 | 46 | 1013.4 |
| 20260505212844 | 81 | 198 | 7.0 | 18.0 | 0.00 | 0.00 | 0.00 | 45 | 1013.5 |
| 20260505212822 | 81 | 176 | 7.0 | 19.0 | 0.00 | 0.00 | 0.00 | 43 | 1013.5 |
| 20260505211832 | 82 | 190 | 6.0 | 19.0 | 0.00 | 0.00 | 0.00 | 43 | 1013.5 |
| 20260505211545 | 82 | 170 | 7.0 | 16.0 | 0.00 | 0.00 | 0.00 | 43 | 1013.4 |